カタログに戻る

STARLINK-30568

運用中通信VLEO
NORAD 58051·PAYLOAD·🇺🇸 United States

打ち上げ Oct 13, 2023 から Cape Canaveral Space Force Station

Loading…

次のパス (今後24時間)

TLE

最新Source: CelesTrak SupGP

元期: Sep 14, 2026, 20:57 UTC

1 58051C 23158A   26257.87340278  .00066996  00000+0  24255-2 0  2571
2 58051  43.0043  39.0505 0001493 273.4381 257.6166 15.27560455    16

AllMySatでSTARLINK-30568をリアルタイム追跡

Download on the App Store